Tracking 29892 objects as of 21-Nov-2024
HD Live streaming from Space Station
objects crossing your sky now

STARLINK-3599

Track STARLINK-3599 now!
10-day predictions
STARLINK-3599 is classified as:


NORAD ID: 51814
Int'l Code: 2022-017AY
Perigee: 545.9 km
Apogee: 547.9 km
Inclination: 53.2 °
Period: 95.4 minutes
Semi major axis: 6917 km
RCS: Unknown
Launch date: February 25, 2022
Source: United States (US)
Launch site: AIR FORCE WESTERN TEST RANGE (AFWTR)
Your satellite tracking list
Your tracking list is empty




NASA's NSSDC Master Catalog

Two Line Element Set (TLE):
1 51814U 22017AY  24325.94637829  .00000069  00000-0  22458-4 0  9995
2 51814  53.2176 295.8333 0001495 101.4311 258.6849 15.08832712152689
Source of the keplerian elements: AFSPC